Regional Weather Roundup
Issued by NWS

Home | Current Version | Previous Version | Text Only | Print | Product List | Glossary On
Versions: 1 2 3 4 5 6 7 8 9 10 11 12 13 14 15 16 17 18 19 20 21 22 23 24 25 26 27 28 29 30 31 32 33 34 35 36 37 38 39 40 41 42 43 44 45 46 47 48 49 50
000
ASUS45 KABQ 292310
RWRNM
NEW MEXICO REGIONAL WEATHER ROUNDUP
NATIONAL WEATHER SERVICE ALBUQUERQUE NM
500 PM MDT SUN MAY 29 2016

NOTE: "FAIR" MEANS FEW OR NO CLOUDS BELOW 12,000 FEET AGL WITH NO
       SIGNIFICANT WEATHER OR OBSTRUCTIONS TO VISION.

      THIS PRODUCT IS RELEASED AS TWO VERSIONS.  ONE VERSION NEAR
      THE TOP OF THE HOUR CONTAINING PRELIMINARY DATA FROM ALBUQUERQUE
      AND OTHER STATIONS.  A FINAL VERSION WITH ADDITIONAL DATA IS
      ISSUED ABOUT 10 MINUTES AFTER THE HOUR.

NMZ501-503-504-510>518-300000-
NORTHWEST PLATEAU/NORTHCENTRAL MOUNTAINS

CITY           SKY/WX    TMP DP  RH WIND       PRES   REMARKS
FARMINGTON     FAIR      83  16   8 W15G22    30.02F
LOS ALAMOS     FAIR      76  11   8 S16G23    30.16F
SANTA FE       FAIR      82   7   6 SW17G24   30.09F
TAOS           FAIR      77  18  10 W16G26    30.15F
ANGEL FIRE     FAIR      63  29  27 S13G18    30.24F

$$
NMZ402-403-502-505>509-300000-
WESTCENTRAL MOUNTAINS/SOUTHWEST MOUNTAINS

CITY           SKY/WX    TMP DP  RH WIND       PRES   REMARKS
GALLUP         FAIR      78  10   7 S9G21     30.11F
GRANTS         FAIR      80   7   6 S10G21    30.12S
SILVER CITY      N/A     81  25  12 SW14G24   30.09F

$$
NMZ407-409-411-412-300000-
SOUTHERN DESERTS

CITY           SKY/WX    TMP DP  RH WIND       PRES   REMARKS
LORDSBURG      FAIR      90  27  10 S7G26     29.99F
DEMING         FAIR      89  31  12 SW14G21   30.01F
LAS CRUCES     FAIR      89  19   7 S13G18    30.03F
HOLLOMAN AFB   FAIR      89  21   8 SW17G25   29.98F
ALAMOGORDO     FAIR      90  25   9 S7        30.00F
T OR C         FAIR      87  15   7 S17G29    30.02F

$$
NMZ519>523-300000-
CENTRAL VALLEYS/CENTRAL HIGHLANDS

CITY           SKY/WX    TMP DP  RH WIND       PRES   REMARKS
ALBUQUERQUE    FAIR      85  15   7 S15G25    30.03F
DOUBLE EAGLE   MOSUNNY   82  18   9 SW17G29   30.07F
MORIARTY ARPT  FAIR      82  15   8 SW17G25   30.11F
CLINES CORNERS FAIR      76  17  11 W18G31    30.16F
BELEN          FAIR      85  15   7 S15G22    30.02F
SOCORRO        FAIR      88  19   8 SW17G26   30.00F

$$
NMZ524>526-539-540-300000-
SOUTHCENTRAL MOUNTAINS

CITY           SKY/WX    TMP DP  RH WIND       PRES   REMARKS
RUIDOSO        FAIR      77  23  13 S10G24    30.21S

$$
NMZ527>531-300000-
NORTHEAST HIGHLANDS/NORTHEAST PLAINS

CITY           SKY/WX    TMP DP  RH WIND       PRES   REMARKS
LAS VEGAS      FAIR      74  29  19 SE17G26   30.15F
RATON          FAIR      75  32  20 SW22G30   30.10F
CLAYTON        PTSUNNY   73  34  23 S7G21     30.10R

$$
NMZ532>537-300000-
EASTCENTRAL PLAINS

CITY           SKY/WX    TMP DP  RH WIND       PRES   REMARKS
TUCUMCARI      FAIR      77  47  34 E18       30.02F
CANNON AFB     CLOUDY    77  58  51 S21       30.04F
CLOVIS AIRPORT FAIR      77  55  47 S14       30.07R

$$
NMZ028-029-538-300000-
SOUTHEAST PLAINS

CITY           SKY/WX    TMP DP  RH WIND       PRES   REMARKS
ROSWELL        FAIR      83  44  25 S24G37    30.02R
ARTESIA        FAIR      79  57  47 E12       30.00F
CARLSBAD       FAIR      84  55  36 E23G29    30.00F
HOBBS          TSTM      73  66  78 S10       30.08R


$$




USA.gov is the U.S. government's official web portal to all federal, state and local government web resources and services.